User: anonymous   Login
Location: Étavigny
(49.1201°N, 2.9800°E)
Time: 01:25:59
(UTC+00:00)
Language:

Cosmos 1844 - Orbit

View from above orbital plane
View from above orbital plane
View from above satellite
View from above satellite

Ground track
Ground track

The orbit data is extracted from the following two-line orbital elements,

1 17973U 87041A   24201.46935798 -.00000116  00000-0 -34946-4 0  9997
2 17973  70.8969 215.7899 0031873 205.0660 154.8916 14.14339000918995
Epoch (UTC): 19 July 2024 11:15:52
Eccentricity: 0.0031873
inclination: 70.8969°
perigee height: 821 km
apogee height: 867 km
right ascension of ascending node: 215.7899°
argument of perigee: 205.0660°
revolutions per day: 14.14339000
mean anomaly at epoch: 154.8916°
orbit number at epoch: 91899

The dashed part of the orbit path shows where the satellite is in the earth's shadow,  

DLR